User: anonymous   Login
Location: Wildcat Hills Observatory
(41.6350°N, 103.6812°W)
Time: 19:27:22
(UTC-06:00)
Language:

Cosmos 1634 Rocket - Orbit

View from above orbital plane
View from above orbital plane
View from above satellite
View from above satellite

Ground track
Ground track

The orbit data is extracted from the following two-line orbital elements,

1 15598U 85022B   15207.57714339  .00000012  00000-0 -32690-5 0  9998
2 15598 082.9362 261.1538 0020964 241.6278 225.6687 13.76529541525312
Epoch (UTC): 26 July 2015 13:51:05
Eccentricity: 0.0020964
inclination: 82.9362°
perigee height: 961 km
apogee height: 991 km
right ascension of ascending node: 261.1538°
argument of perigee: 241.6278°
revolutions per day: 13.76529541
mean anomaly at epoch: 225.6687°
orbit number at epoch: 52531

The dashed part of the orbit path shows where the satellite is in the earth's shadow,  

DLR